Tracking 28790 objects as of 19-Apr-2024
HD Live streaming from Space Station
objects crossing your sky now

OPS 4682 DEB

Track OPS 4682 DEB now!
10-day predictions


NORAD ID: 15530
Int'l Code: 1965-027T
Perigee: 1,250.8 km
Apogee: 1,302.2 km
Inclination: 90.3 °
Period: 110.9 minutes
Semi major axis: 7647 km
RCS: 0.0081 m2 (small)
Launch date: April 3, 1965
Source: United States (US)
Launch site: AIR FORCE WESTERN TEST RANGE (AFWTR)

Note: This is SATELLITE DEBRIS
Your satellite tracking list
Your tracking list is empty




NASA's NSSDC Master Catalog

Two Line Element Set (TLE):
1 15530U 65027T   24106.20306634  .00000329  00000-0  10968-2 0  9991
2 15530  90.2653  12.8086 0033603 324.5114 189.0468 12.98138284954810
Source of the keplerian elements: AFSPC